Satellite: RS-30
Catalog number: 32953
Epoch time:      10336.83481866
Element set:     263
Inclination:      082.5004 deg
RA of node:       284.8030 deg
Eccentricity:    0.0020113
Arg of perigee:   092.9215 deg
Mean anomaly:     267.4172 deg
Mean motion:   12.43009515 rev/day
Decay rate:        1.0e-07 rev/day^2
Epoch rev:           11469
Checksum:              264

Satellite: TACSAT-3
Catalog number: 35001
Epoch time:      10335.96885059
Element set:    0453
Inclination:      040.4562 deg
RA of node:       284.9067 deg
Eccentricity:    0.0021737
Arg of perigee:   184.7455 deg
Mean anomaly:     175.3144 deg
Mean motion:   15.43860657 rev/day
Decay rate:      6.860e-05 rev/day^2
Epoch rev:           08655
Checksum:              320

Satellite: PHARMSAT
Catalog number: 35002
Epoch time:      10335.94072729
Element set:    0427
Inclination:      040.4706 deg
RA of node:       282.6301 deg
Eccentricity:    0.0024171
Arg of perigee:   187.4758 deg
Mean anomaly:     172.5700 deg
Mean motion:   15.44156336 rev/day
Decay rate:      5.956e-05 rev/day^2
Epoch rev:           08657
Checksum:              292

Satellite: HAWKSAT1
Catalog number: 35003
Epoch time:      10336.89229098
Element set:     452
Inclination:      040.4605 deg
RA of node:       265.2970 deg
Eccentricity:    0.0023559
Arg of perigee:   218.8333 deg
Mean anomaly:     141.0748 deg
Mean motion:   15.49654360 rev/day
Decay rate:     1.5317e-04 rev/day^2
Epoch rev:            8685
Checksum:              304

Satellite: CP6
Catalog number: 35004
Epoch time:      10336.88594934
Element set:     453
Inclination:      040.4625 deg
RA of node:       262.5510 deg
Eccentricity:    0.0023670
Arg of perigee:   223.9694 deg
Mean anomaly:     135.9144 deg
Mean motion:   15.51465447 rev/day
Decay rate:     1.9161e-04 rev/day^2
Epoch rev:            8687
Checksum:              311

Satellite: AEROCUB3
Catalog number: 35005
Epoch time:      10336.86807023
Element set:     544
Inclination:      040.4630 deg
RA of node:       242.7671 deg
Eccentricity:    0.0025280
Arg of perigee:   248.2275 deg
Mean anomaly:     111.5583 deg
Mean motion:   15.77717362 rev/day
Decay rate:    2.17953e-03 rev/day^2
Epoch rev:            8709
Checksum:              296

Satellite: METEOR-M
Catalog number: 35865
Epoch time:      10336.67427407
Element set:     888
Inclination:      098.7363 deg
RA of node:       029.0715 deg
Eccentricity:    0.0001579
Arg of perigee:   238.5381 deg
Mean anomaly:     121.5610 deg
Mean motion:   14.21833398 rev/day
Decay rate:       1.76e-06 rev/day^2
Epoch rev:            6266
Checksum:              315

Satellite: RS-38
Catalog number: 35869
Epoch time:      10336.69752249
Element set:     900
Inclination:      098.7351 deg
RA of node:       029.1354 deg
Eccentricity:    0.0003825
Arg of perigee:   237.1921 deg
Mean anomaly:     122.8849 deg
Mean motion:   14.21995008 rev/day
Decay rate:       1.77e-06 rev/day^2
Epoch rev:            6267
Checksum:              327

/EX




More information about the Keps mailing list